Airfield :
LOGIN :

Register | Disclaimer

   EN    FR    IT 

 










Legend :    VFR   Marginal VFR   IFR   Intensive IFR   Very Intensive IFR
Visi :
Ceiling :
>= 8 km
>= 3000ft
5 to 8 km
1000 to 3000 ft
1500m to 5 km
500 to 1000 ft
800 to 1500m
200 to 500 ft
< 800m
< 200 ft
Symbols :   Thunderstorms  Fog  Heavy snow  Heavy precipitations  Wind > 20 kt
SIGMETs :     Misc.  Thunderstorms  Icing  Turbulence  Mountain Waves  Volcanic Ashes







- Airport Elevation : 200 ft


EBBL - Klein Brogel AB

CURRENT METAR :
  • 180655Z VRB02KT 0200 FG BKN002 11/11 Q1014 RED YLO TEMPO RED

EXPIRED METARs :
  • 180625Z 11003KT 0200 FG BKN002 11/11 Q1014 RED YLO TEMPO RED
  • 180555Z 09003KT 0200 FG BKN002 12/12 Q1014 RED YLO TEMPO RED
  • 180525Z 09004KT 0300 FG BKN002 12/12 Q1014 RED YLO TEMPO RED
  • 180455Z 06003KT 0400 BR BKN002 BKN006 12/12 Q1014 RED YLO TEMPO RED
  • 180425Z 05004KT 2500 BR BKN003 12/12 Q1014 YLO

Expired Forecast.
No reported NOTAMs for that airfield.



MET'MAP, your aeronautical weather chart ! - Copyright ORBIFLY December 2007 - Disclaimer

ORBIFLY MET'MAP TEAM :

Programming & Development : Alexandra Zaïnal
Concept & Development : Baudouin d'Aumeries
Co-Development & Prog : Marc-Olivier Méhu
Technical & hardware support : Manuel Goepfert

Contact : metmap@orbifly.com




SOURCES & CREDITS :

   NOAA